• In Lithuania
  • List of Countries
  • For 7 days
  • Water Temperature
  • Satellite Maps
  • Weather Map
  • Weather Widgets
  • user-avatar
    Login

    Hourly Weather Innsbruck

    Today, 26 September, Tuesday

    Time Temperature Precipitation Wind Pressure Humidity
    00:00 +1°C° 0 mm 1 mps 596 mmHg 88%
    01:00 +1°C° 0 mm 1 mps 596 mmHg 89%
    02:00 +1°C° 0 mm 1 mps 596 mmHg 89%
    03:00 +1°C° 0 mm 1 mps 596 mmHg 89%
    04:00 0°C° 0 mm 1 mps 596 mmHg 89%
    05:00 +1°C° 0 mm 1 mps 596 mmHg 88%
    06:00 +1°C° 0 mm 1 mps 597 mmHg 87%
    07:00 +3°C° 0 mm 1 mps 598 mmHg 84%
    08:00 +5°C° 0 mm 1 mps 599 mmHg 76%
    09:00 +7°C° 0 mm 1 mps 599 mmHg 68%
    10:00 +8°C° 0 mm 0 mps 600 mmHg 61%
    11:00 +9°C° 0 mm 1 mps 600 mmHg 59%
    12:00 +10°C° 0 mm 1 mps 601 mmHg 57%
    13:00 +10°C° 0 mm 1 mps 601 mmHg 55%
    14:00 +10°C° 0.2 mm 1 mps 601 mmHg 59%
    15:00 +9°C° 0.2 mm 1 mps 600 mmHg 64%
    16:00 +9°C° 0.2 mm 1 mps 600 mmHg 68%
    17:00 +7°C° 0.2 mm 1 mps 600 mmHg 75%
    18:00 +4°C° 0.2 mm 0 mps 599 mmHg 83%
    19:00 +2°C° 0.2 mm 0 mps 598 mmHg 90%
    20:00 +2°C° 0 mm 0 mps 598 mmHg 90%
    21:00 +2°C° 0 mm 1 mps 599 mmHg 90%
    22:00 +2°C° 0 mm 1 mps 599 mmHg 90%
    23:00 +2°C° 0 mm 1 mps 599 mmHg 90%

    Tomorrow, 27 September, Wednesday

    Time Temperature Precipitation Wind Pressure Humidity
    00:00 +2°C° 0 mm 1 mps 599 mmHg 89%
    01:00 +2°C° 0 mm 1 mps 598 mmHg 89%
    02:00 +1°C° 0 mm 1 mps 598 mmHg 89%
    03:00 +1°C° 0 mm 1 mps 598 mmHg 88%
    04:00 +1°C° 0 mm 1 mps 598 mmHg 88%
    05:00 +1°C° 0 mm 1 mps 598 mmHg 87%
    06:00 +2°C° 0 mm 1 mps 599 mmHg 86%
    07:00 +2°C° 0 mm 1 mps 599 mmHg 85%
    08:00 +5°C° 0 mm 1 mps 600 mmHg 77%
    09:00 +7°C° 0 mm 1 mps 601 mmHg 69%
    10:00 +10°C° 0 mm 1 mps 603 mmHg 61%
    11:00 +10°C° 0 mm 1 mps 603 mmHg 59%
    12:00 +11°C° 0 mm 1 mps 603 mmHg 56%
    13:00 +12°C° 0 mm 1 mps 603 mmHg 53%
    14:00 +11°C° 0 mm 1 mps 603 mmHg 56%
    15:00 +11°C° 0 mm 1 mps 602 mmHg 59%
    16:00 +11°C° 0 mm 1 mps 602 mmHg 63%
    17:00 +8°C° 0 mm 1 mps 601 mmHg 71%
    18:00 +6°C° 0 mm 1 mps 600 mmHg 80%
    19:00 +4°C° 0 mm 1 mps 599 mmHg 88%
    20:00 +3°C° 0 mm 1 mps 600 mmHg 88%
    21:00 +3°C° 0 mm 1 mps 600 mmHg 88%
    22:00 +3°C° 0 mm 1 mps 600 mmHg 87%
    23:00 +3°C° 0 mm 1 mps 600 mmHg 87%

    Day after tomorrow, 28 September, Thursday

    Time Temperature Precipitation Wind Pressure Humidity
    00:00 +2°C° 0 mm 1 mps 600 mmHg 86%
    01:00 +2°C° 0 mm 1 mps 600 mmHg 86%
    02:00 +2°C° 0 mm 1 mps 600 mmHg 86%
    03:00 +2°C° 0 mm 1 mps 600 mmHg 85%
    04:00 +2°C° 0 mm 1 mps 600 mmHg 85%
    05:00 +2°C° 0 mm 1 mps 600 mmHg 84%
    06:00 +3°C° 0 mm 1 mps 601 mmHg 82%
    07:00 +3°C° 0 mm 1 mps 601 mmHg 81%
    08:00 +6°C° 0 mm 1 mps 602 mmHg 73%
    09:00 +9°C° 0 mm 1 mps 603 mmHg 65%
    10:00 +10°C° 0 mm 0 mps 605 mmHg 57%
    11:00 +12°C° 0 mm 1 mps 605 mmHg 55%
    12:00 +12°C° 0 mm 1 mps 605 mmHg 53%
    13:00 +13°C° 0 mm 1 mps 605 mmHg 52%
    14:00 +12°C° 0 mm 1 mps 604 mmHg 55%
    15:00 +12°C° 0 mm 1 mps 604 mmHg 57%
    16:00 +12°C° 0 mm 1 mps 604 mmHg 60%
    17:00 +9°C° 0 mm 1 mps 603 mmHg 70%
    18:00 +7°C° 0 mm 1 mps 602 mmHg 79%
    19:00 +4°C° 0 mm 1 mps 601 mmHg 88%
    20:00 +4°C° 0 mm 1 mps 601 mmHg 89%
    21:00 +3°C° 0 mm 1 mps 601 mmHg 89%
    22:00 +3°C° 0 mm 1 mps 601 mmHg 90%
    23:00 +3°C° 0 mm 1 mps 601 mmHg 89%

    29 September, Friday

    Time Temperature Precipitation Wind Pressure Humidity
    00:00 +3°C° 0 mm 1 mps 601 mmHg 88%
    01:00 +3°C° 0 mm 1 mps 601 mmHg 87%
    02:00 +3°C° 0 mm 1 mps 600 mmHg 86%
    03:00 +3°C° 0 mm 1 mps 600 mmHg 86%
    04:00 +3°C° 0 mm 1 mps 600 mmHg 85%
    05:00 +3°C° 0 mm 1 mps 600 mmHg 84%
    06:00 +4°C° 0 mm 1 mps 601 mmHg 83%
    07:00 +4°C° 0 mm 1 mps 601 mmHg 81%
    08:00 +6°C° 0 mm 1 mps 602 mmHg 73%
    09:00 +9°C° 0 mm 1 mps 603 mmHg 64%
    10:00 +11°C° 0 mm 1 mps 604 mmHg 56%
    11:00 +11°C° 0.1 mm 1 mps 604 mmHg 57%
    12:00 +12°C° 0.1 mm 1 mps 603 mmHg 58%
    13:00 +12°C° 0.1 mm 1 mps 603 mmHg 59%
    14:00 +11°C° 0.6 mm 1 mps 603 mmHg 66%
    15:00 +10°C° 0.6 mm 1 mps 602 mmHg 74%
    16:00 +9°C° 0.6 mm 1 mps 601 mmHg 81%
    17:00 +8°C° 0.4 mm 1 mps 601 mmHg 85%
    18:00 +7°C° 0.4 mm 1 mps 601 mmHg 89%
    19:00 +6°C° 0.4 mm 1 mps 600 mmHg 94%
    20:00 +5°C° 0.1 mm 1 mps 600 mmHg 94%
    21:00 +4°C° 0.1 mm 1 mps 600 mmHg 95%
    22:00 +4°C° 0.1 mm 1 mps 600 mmHg 95%
    23:00 +3°C° 0 mm 1 mps 599 mmHg 95%

    30 September, Saturday

    Time Temperature Precipitation Wind Pressure Humidity
    00:00 +3°C° 0 mm 1 mps 599 mmHg 95%
    01:00 +2°C° 0 mm 1 mps 599 mmHg 95%
    02:00 +2°C° 0 mm 1 mps 598 mmHg 94%
    03:00 +2°C° 0 mm 1 mps 598 mmHg 94%
    04:00 +2°C° 0 mm 1 mps 598 mmHg 93%
    05:00 +2°C° 0 mm 1 mps 598 mmHg 92%
    06:00 +2°C° 0 mm 1 mps 598 mmHg 91%
    07:00 +3°C° 0 mm 1 mps 598 mmHg 90%
    08:00 +5°C° 0 mm 1 mps 599 mmHg 82%
    09:00 +8°C° 0 mm 1 mps 600 mmHg 73%
    10:00 +9°C° 0 mm 0 mps 601 mmHg 64%
    11:00 +11°C° 0 mm 1 mps 601 mmHg 60%
    12:00 +12°C° 0 mm 1 mps 601 mmHg 57%
    13:00 +13°C° 0 mm 1 mps 601 mmHg 54%
    14:00 +12°C° 0.1 mm 1 mps 600 mmHg 57%
    15:00 +11°C° 0.1 mm 1 mps 600 mmHg 61%
    16:00 +10°C° 0.1 mm 2 mps 600 mmHg 65%
    17:00 +9°C° 0.1 mm 1 mps 599 mmHg 74%
    18:00 +6°C° 0.1 mm 1 mps 598 mmHg 84%
    19:00 +3°C° 0.1 mm 0 mps 597 mmHg 93%
    20:00 +4°C° 0 mm 1 mps 597 mmHg 94%
    21:00 +4°C° 0 mm 1 mps 597 mmHg 94%
    22:00 +4°C° 0 mm 1 mps 597 mmHg 94%
    23:00 +3°C° 0 mm 1 mps 597 mmHg 94%

    1 October, Sunday

    Time Temperature Precipitation Wind Pressure Humidity
    00:00 +3°C° 0 mm 1 mps 597 mmHg 93%
    01:00 +3°C° 0 mm 1 mps 596 mmHg 93%
    02:00 +3°C° 0 mm 1 mps 596 mmHg 93%
    03:00 +3°C° 0 mm 1 mps 596 mmHg 93%
    04:00 +2°C° 0 mm 1 mps 596 mmHg 93%
    05:00 +3°C° 0 mm 1 mps 596 mmHg 93%
    06:00 +3°C° 0 mm 1 mps 597 mmHg 92%
    07:00 +3°C° 0 mm 1 mps 597 mmHg 92%
    08:00 +5°C° 0 mm 1 mps 598 mmHg 84%
    09:00 +7°C° 0 mm 1 mps 599 mmHg 76%
    10:00 +10°C° 0 mm 1 mps 600 mmHg 69%
    11:00 +10°C° 0 mm 1 mps 600 mmHg 65%
    12:00 +11°C° 0 mm 1 mps 600 mmHg 62%
    13:00 +10°C° 0 mm 2 mps 600 mmHg 59%
    14:00 +10°C° 0.1 mm 2 mps 600 mmHg 62%
    15:00 +9°C° 0.1 mm 2 mps 600 mmHg 66%
    16:00 +9°C° 0.1 mm 2 mps 600 mmHg 69%
    17:00 +7°C° 0 mm 2 mps 599 mmHg 78%
    18:00 +6°C° 0 mm 1 mps 598 mmHg 87%
    19:00 +4°C° 0 mm 1 mps 598 mmHg 96%
    20:00 +4°C° 0 mm 1 mps 598 mmHg 96%
    21:00 +4°C° 0 mm 1 mps 598 mmHg 97%
    22:00 +3°C° 0 mm 1 mps 598 mmHg 97%
    23:00 +3°C° 0 mm 1 mps 598 mmHg 97%
    Show more